Location: Le Rocchette
(44.3500°N, 7.8333°E)
Time: 18:08:56
(UTC+00:00)

Cosmos 2233 Rocket - Pass Details

Date: 17 November 2019
Orbit: 953 x 990 km, 82.9° (Epoch: 11 December)

Event Time Altitude Azimuth Distance (km) Brightness Sun altitude
Rises 05:27:05 0° 185° (S) 3,662 7.2 -10.8°
Reaches altitude 10° 05:29:34 10° 185° (S) 2,723 6.5 -10.3°
Maximum altitude 05:35:50 88° 95° (E) 993 4.1 -9.3°
Drops below altitude 10° 05:42:12 10° 9° (N) 2,760 6.3 -8.2°
Sets 05:44:44 0° 9° (N) 3,714 6.9 -7.7°
